Location: *
(28.3352°N, 46.1249°E)
Time: 00:54:27
(UTC+00:00)

Daily predictions for brighter satellites

Satellite Brightness Start Highest point End
(mag) Time Altitude Azimuth Time Altitude Azimuth Time Altitude Azimuth
Cosmos 2237 Rocket 4.5 00:03:44 10° NNE 00:08:02 22° ENE 00:12:20 10° ESE
CENTAUR R/B 3.4 00:16:13 33° SE 00:17:07 35° ESE 00:22:39 10° NE
Cosmos 2219 4.1 00:21:57 41° N 00:21:57 41° N 00:25:44 10° NNE
Cosmos 2297 Rocket 2.6 00:21:55 56° NNE 00:21:55 56° NNE 00:26:20 10° NNE
NOSS 3-2 (C) 3.7 00:22:09 51° ESE 00:22:23 52° ESE 00:28:07 10° NE
COBE Rocket 4.3 00:34:56 55° NNE 00:34:56 55° NNE 00:38:44 10° N
Cosmos 1900 4.3 00:42:40 74° NNE 00:42:40 74° NNE 00:47:06 10° NNE
PAYLOAD A 4.4 00:39:14 10° NNE 00:44:36 65° E 00:46:42 36° S
Cosmos 2227 Rocket 2.3 00:46:34 56° NW 00:46:34 56° NW 00:51:41 10° N
MSX 3.7 00:47:23 10° N 00:53:06 66° WNW 00:53:56 58° WSW
IDEFIX/ARIANE 42P 3.6 00:51:17 10° N 00:54:35 31° NW 00:54:35 31° NW
PSLV R/B 3.9 00:51:51 10° N 00:55:20 52° NNW 00:55:20 52° NNW
Meteor 1-19 Rocket 4.1 00:55:45 55° SW 00:56:51 68° W 01:02:27 10° N
CZ-4B R/B 3.7 01:03:58 17° NNW 01:03:58 17° NNW 01:04:49 10° NNW
Okean 3 3.3 01:03:48 56° S 01:04:39 88° E 01:08:49 10° N
Yuri Rocket 3.8 01:06:21 35° S 01:06:21 35° S 01:09:57 10° SE
SL-4 R/B 2.3 01:04:38 33° NNW 01:06:22 66° NE 01:10:45 10° SE
Cosmos 1634 Rocket 4.2 01:00:36 10° NNW 01:06:22 44° W 01:07:16 41° WSW
Delta 142 4.4 01:05:32 38° SSW 01:06:29 42° SSE 01:10:40 10° E
ATLAS 3B R/B 3.3 01:01:57 12° S 01:08:05 54° ESE 01:14:31 10° NE
BREEZE M DEB (TANK) 4.3 01:06:43 40° W 01:08:29 55° SW 01:23:42 10° SSE
Cosmos 1980 3.6 01:03:47 10° NNW 01:09:27 88° ENE 01:15:06 10° SSE
STARLINK-1062 4.5 01:09:00 32° S 01:10:24 45° SE 01:14:21 10° NE
Cosmos 1975 2.6 01:07:34 10° N 01:11:35 82° W 01:14:55 15° S
Cosmos 1125 Rocket 3.6 01:11:14 44° WSW 01:12:21 52° WNW 01:17:33 10° N
Meteor 1-4 Rocket 3.8 01:09:21 10° SSE 01:12:52 42° E 01:16:26 10° NNE
Cosmos 1782 Rocket 3.5 01:08:54 10° NNW 01:13:07 54° W 01:13:16 54° WSW
STARLINK-1053 4.2 01:13:47 32° S 01:15:22 51° SE 01:19:24 10° NE
SeaSat 1 3.1 01:12:40 10° SE 01:17:28 56° ENE 01:22:17 10° NNW
USA 238 DEB 4.4 01:15:53 29° W 01:17:29 33° NW 01:23:30 10° N
USA 238 4.4 01:15:56 29° W 01:17:35 33° NW 01:23:38 10° N
Cosmos 1484 Rocket 4.3 01:14:59 10° NNE 01:18:29 35° E 01:21:56 10° SSE
Cosmos 2082 3.9 01:16:53 35° WSW 01:18:56 52° WNW 01:24:30 10° N
STARLINK-1061 4.0 01:18:35 31° SSW 01:20:21 59° SE 01:24:25 10° NE
ADEOS 3.7 01:15:41 10° N 01:20:45 53° WNW 01:23:22 27° SW
SL-16 R/B 3.9 01:19:13 10° N 01:24:22 35° ENE 01:29:29 10° SE
TIMED 4.3 01:20:38 10° NNW 01:24:59 73° WSW 01:29:19 10° S
STARLINK-1067 3.8 01:23:21 29° SSW 01:25:17 67° SE 01:29:24 10° NE
CZ-4B R/B 3.8 01:24:21 10° NNE 01:28:17 76° ESE 01:32:01 10° S
CZ-2C R/B 2.5 01:25:30 10° N 01:29:52 46° WNW 01:32:10 25° SW
USA 234 3.2 01:23:44 10° SE 01:30:17 89° NE 01:36:51 10° NW
STARLINK-1058 3.7 01:28:10 28° SSW 01:30:17 76° SE 01:34:25 10° NE
Cosmos 2221 Rocket 4.0 01:30:06 30° WSW 01:31:33 39° W 01:35:45 10° NNW
Cosmos 1092 Rocket 4.2 01:26:15 10° S 01:32:33 76° E 01:38:53 10° N
Cosmos 1544 3.1 01:30:52 10° NNW 01:34:24 51° W 01:37:56 10° S
GPS 2-04 Rocket1 2.5 01:32:47 27° WNW 01:34:49 84° NNE 01:38:32 10° ESE
STARLINK-1043 3.6 01:32:55 25° SW 01:35:13 86° SE 01:39:22 10° NE
Hubble Space Telescope 3.1 01:36:49 10° SSW 01:36:49 10° SSW 01:37:08 10° SSW
STARLINK-1065 3.5 01:34:31 25° SW 01:36:54 90° E 01:41:02 10° NE
SWIFT 4.1 01:35:11 16° SSW 01:37:04 21° S 01:40:16 10° ESE
Cosmos 468 4.4 01:32:36 10° NNW 01:37:56 77° WSW 01:43:13 10° S
Meteor PRIRODA 4.4 01:35:59 10° NNE 01:39:34 52° E 01:43:08 10° S
ASTRO E2 2.8 01:39:04 22° WNW 01:41:29 68° N 01:45:26 10° E
Cosmos 1674 Rocket 3.5 01:37:36 10° S 01:42:02 84° W 01:46:28 10° N
NOSS 0 Rocket 4.5 01:37:06 10° NW 01:42:30 33° WSW 01:47:53 10° SSW
Cosmos 389 Rocket 3.9 01:45:08 21° WNW 01:45:08 21° WNW 01:47:48 10° NNW
STARLINK-1063 3.5 01:42:30 21° SW 01:45:11 74° NW 01:49:20 10° NE
Sich 1 Rocket 4.3 01:45:26 10° NNW 01:49:14 29° W 01:53:00 10° SSW
Meteor 2-4 Rocket 4.4 01:44:28 10° SW 01:49:43 35° WNW 01:55:07 10° NNW
STARLINK-1064 3.6 01:47:17 19° SW 01:50:10 65° NW 01:54:17 10° NE
Cosmos 2026 Rocket 4.2 01:45:27 10° S 01:51:35 77° E 01:57:41 10° N
Cosmos 2237 Rocket 2.6 01:46:55 10° NW 01:52:07 38° WSW 01:57:18 10° S
Nadezhda 4 Rocket 4.4 01:47:05 10° SSW 01:52:57 41° W 01:58:53 10° NNW
CZ-4B R/B 3.0 01:48:59 10° N 01:53:16 68° WNW 01:57:41 10° SSW
Skynet4D Del rocket 4.5 01:47:44 16° W 01:53:51 73° S 02:02:01 10° ESE
Cosmos 1689 Rocket 3.3 01:53:24 16° SW 01:54:50 22° W 01:57:14 10° NW
STARLINK-1041 3.7 01:52:03 17° WSW 01:55:08 57° NW 01:59:12 10° NNE
Okean O Rocket 4.3 01:53:51 10° NE 01:57:20 23° E 02:00:48 10° SSE
Okean 2 Rocket 3.5 01:53:45 10° NNW 01:57:59 42° W 02:02:14 10° SSW
STARLINK-60 3.4 01:54:45 10° NW 01:58:00 65° NE 02:01:12 10° SE
Cosmos 2151 Rocket 3.5 01:53:41 10° NNW 01:58:03 68° W 02:02:24 10° S
PSLV R/B 4.3 01:55:54 10° NNE 01:59:59 67° E 02:04:01 10° S
STARLINK-1038 3.9 01:56:49 15° WSW 02:00:06 51° NW 02:04:08 10° NNE
Meteor 1-12 Rocket 4.3 01:55:12 10° NNW 02:01:05 65° W 02:06:51 10° S
Meteor 1-31 Rocket 3.5 01:58:33 10° N 02:02:07 33° WNW 02:05:39 10° SW
Cosmos 1867 3.7 01:57:09 10° SSW 02:02:33 81° ESE 02:08:01 10° NNE
STARLINK-1046 4.1 02:01:37 13° WSW 02:05:06 45° NW 02:09:04 10° NNE
Cosmos 1428 Rocket 4.5 01:59:10 10° S 02:05:16 90° W 02:11:25 10° N
Cosmos 2263 Rocket 2.5 02:00:28 10° SSW 02:06:04 74° ESE 02:11:44 10° NNE
CENTAUR R/B 3.5 02:03:25 12° WSW 02:07:42 27° NW 02:13:05 10° N
H-2A R/B 2.8 02:04:58 10° N 02:08:47 41° WNW 02:12:29 10° SW
STARLINK-1039 4.2 02:06:25 11° WSW 02:10:06 40° NW 02:14:00 10° NNE
Timation 1 Rocket 4.4 02:08:34 10° SSW 02:14:33 79° WNW 02:20:35 10° NNE
STARLINK-1045 4.4 02:11:16 10° WSW 02:15:04 36° NW 02:18:54 10° NNE
Cosmos 1300 Rocket 4.3 02:12:17 10° NNW 02:16:04 30° W 02:19:51 10° SSW
SKYMED 2 3.9 02:12:39 10° SSE 02:16:57 73° ENE 02:21:17 10° N
BREEZE-M DEB (TANK) 3.0 02:15:18 10° NW 02:19:06 63° SW 02:25:21 10° SE
Cosmos 2227 4.3 02:16:19 10° SSW 02:21:52 61° WNW 02:27:26 10° N
Chandra Rocket (1) 3.0 02:10:28 10° W 02:22:55 90° SSE 02:26:44 10° E
Cosmos 1378 Rocket 4.2 02:20:47 10° SW 02:24:38 32° W 02:28:32 10° NNW
ALOS 2.7 02:21:36 10° N 02:25:59 42° WNW 02:30:23 10° SW
